Location: Chateh
(58.6667°N, 118.6000°W)
Time: 09:15:45
(UTC+00:00)

O/OREOS (USA 219) - Pass Details

Date: 09 December 2023
Orbit: 621 x 646 km, 72.0° (Epoch: 22 May)

Event Time Altitude Azimuth Distance (km) Brightness Sun altitude
Exits shadow 12:45:45 18° 11° (N) 1,545 ? -27.2°
Maximum altitude 12:46:10 18° 18° (NNE) 1,536 ? -27.1°
Drops below altitude 10° 12:49:19 10° 63° (ENE) 2,013 ? -26.7°
Sets 12:52:13 0° 82° (E) 2,923 ? -26.4°
